Regional Weather Roundup
Issued by NWS San Diego, CA

Home | Current Version | Previous Version | Text Only | Print | Product List | Glossary On
Versions: 1 2 3 4 5 6 7 8 9 10 11 12 13 14 15 16 17 18 19 20 21 22 23 24 25 26 27 28 29 30 31 32 33 34 35 36 37 38 39 40 41 42 43 44 45 46 47 48 49 50
000
ASUS46 KSGX 191510
RWRSGX

SAN DIEGO HOURLY WEATHER ROUNDUP
NATIONAL WEATHER SERVICE SAN DIEGO CA
800 AM PDT SAT APR 19 2014

NOTE: "FAIR" INDICATES FEW OR NO CLOUDS BELOW 12,000 FEET WITH NO
SIGNIFICANT WEATHER AND/OR OBSTRUCTIONS TO VISIBILITY.

CAZ042-043-060-061-PZZ750-775-191600-

GREATER SAN DIEGO AREA

CITY           SKY/WX    TMP DP  RH WIND       PRES   REMARKS
LINDBERGH FLD  MOSUNNY   63  55  75 N7        29.99R
NATIONAL CITY    N/A     62  57  82 N1        29.98R
CHULA VISTA      N/A     60  56  88 CALM      29.91R
IMPERIAL BEACH PTSUNNY   63  57  81 N6        29.98R
BROWN FIELD    PTSUNNY   61  54  77 CALM      29.97R
MIRAMAR MCAS   PTSUNNY   61  54  77 NW7       29.97R
MONTGOMERY FLD MOSUNNY   61  55  81 NW8       29.98R

$$

NORTH SAN DIEGO COUNTY

CITY           SKY/WX    TMP DP  RH WIND       PRES   REMARKS
CAMP PENDLETON SUNNY     57  50  77 CALM      29.97R
RED BEACH      FAIR      63  53  70 W5        29.97R
OCEANSIDE AP   SUNNY     56  51  84 CALM      29.97R
VISTA            N/A     55  52  89 CALM      29.96R
CARLSBAD       SUNNY     60  53  77 CALM      29.97R
DEL MAR          N/A     59  56  91 CALM      29.99R
LA JOLLA SCRIP   N/A     59  57  92 N3        29.95R
FALLBROOK        N/A     55  55 100 CALM      29.97R
ESCONDIDO        N/A     59  54  83 W5        29.99R
SAN MARCOS       N/A     57  53  85 CALM      29.96R
POWAY            N/A     59  54  83 CALM      29.99R
R. PENASQUITOS   N/A     58  55  90 CALM      29.98R

$$

EAST SAN DIEGO COUNTY

CITY           SKY/WX    TMP DP  RH WIND       PRES   REMARKS
RAMONA         CLOUDY    56  51  84 CALM      29.98R
SANTEE LAKES     N/A     60  55  84 CALM      29.99R
GILLESPIE FLD  PTSUNNY   61  52  72 CALM      30.00R
LA MESA          N/A     59  56  90 CALM      29.92R
JAMUL            N/A     56  53  90 W1        29.97R
DESCANSO N       N/A     55  44  67 CALM      29.85R
MT. LAGUNA OBS   N/A     49  34  55 CALM      29.64
CAMPO            N/A     52  43  71 CALM      29.94R

$$

ORANGE COUNTY AND THE LOS ANGELES BASIN

CITY           SKY/WX    TMP DP  RH WIND       PRES   REMARKS
JOHN WAYNE AP  SUNNY     62  53  72 E3        29.98R
LAGUNA BEACH     N/A     57  54  89 NW3       29.96R
LAKE FOREST FR   N/A     55  50  82 CALM      29.89R
SANTA ANA        N/A     57  54  89 CALM      29.93R
HUNTINGTON BCH   N/A     58  57  98 CALM      29.98R
LOS ALAMITOS   MOSUNNY   60  56  88 CALM      29.98R
FULLERTON      SUNNY     61  55  81 CALM      29.97R
LONG BEACH     SUNNY     60  55  83 NW3       29.98R
L.A. AP        MOSUNNY   60  55  83 W6        29.99R
L.A. DOWNTOWN  SUNNY     61  52  72 CALM      29.98R

$$

THE INLAND EMPIRE

CITY           SKY/WX    TMP DP  RH WIND       PRES   REMARKS
CORONA         SUNNY     58  52  80 CALM      29.99R
CHINO          SUNNY     58  53  84 CALM      29.99R
ONTARIO        MOSUNNY   59  51  75 CALM      29.98R
SAN BERNARDINO SUNNY     55  48  76 CALM      29.99R HAZE
RIVERSIDE AP   SUNNY     57  51  80 CALM      29.98R
RIV CYN CREST    N/A     56  56 100 CALM      29.95R
MORENO VALLEY    N/A     56  55  97 W2        28.10R
MARCH ARB      SUNNY     57  51  80 NW9       29.98R
HORSETHIEF CYN   N/A     55  49  82 NW6       29.98R
PERRIS           N/A     54  52  94 NW2         N/A
MENIFEE          N/A     55  53  92 NE3       30.03R
HEMET EAST       N/A     54  47  78 CALM      29.95R
FRENCH VALLEY  NOT AVBL
TEMECULA         N/A     53  52  95 CALM      29.94F

$$

SAN BERNARDINO AND RIVERSIDE COUNTY MOUNTAINS

CITY           SKY/WX    TMP DP  RH WIND       PRES   REMARKS
BIG BEAR AP    SUNNY     41  36  81 W6        30.12R
BIG BEAR SHEA    N/A     38  33  82 CALM      30.06F
ANGELUS OAKS     N/A     45  35  67 MISG      29.89R
PINE COVE        N/A     51  36  57 S1        29.93R

$$

SOUTHERN DESERT INCLUDING THE COACHELLA VALLEY

CITY           SKY/WX    TMP DP  RH WIND       PRES   REMARKS
PALM SPRINGS   SUNNY     69  49  48 N8        29.91S
THOUSAND PALMS   N/A     70  47  43 N3        29.87R
PALM DESERT      N/A     66  53  63 CALM      30.65S
THERMAL        SUNNY     71  51  49 N7        29.86R
BLYTHE         MOSUNNY   70  48  45 CALM      29.90R
IMPERIAL AP    SUNNY     70  51  51 CALM      29.88R
EL CENTRO NAS  MOSUNNY   70  53  54 CALM      29.89R
YUMA AZ        MOSUNNY   71  49  45 NW5       29.89R
MEXICALI         N/A    N/A N/A N/A MISG        N/A

$$

UPPER DESERT

CITY           SKY/WX    TMP DP  RH WIND       PRES   REMARKS
VICTORVILLE AP SUNNY     57  43  58 S5        30.00R
HESPERIA         N/A     56  43  62 CALM      30.06R
GRAY BUTTE AP  NOT AVBL
PALMDALE       SUNNY     62  41  46 SW5       29.99R
LANCASTER      SUNNY     58  39  49 CALM      29.98R
EDWARDS AFB    MOSUNNY   60  39  46 S10       29.96R
DAGGETT        SUNNY     64  43  46 W8        29.97R
29 PALMS N     SUNNY     65  39  38 W3        30.03R
NEEDLES        MOSUNNY   74  46  36 E3        29.93R

$$

REGIONAL REPORTS

CITY           SKY/WX    TMP DP  RH WIND       PRES   REMARKS
SANTA BARBARA  MOSUNNY   58  52  80 CALM      29.98R
SANDBERG       SUNNY     57  44  62 N15       30.05R
MT. WILSON       N/A     55  32  41 NE3         N/A
LAS VEGAS NV   MOSUNNY   68  41  37 CALM      29.93R
PHOENIX AZ     PTSUNNY   67  45  45 CALM      29.92R
TIJUANA        MOSUNNY   61  52  72 NW7       29.99

$$

OFFSHORE ISLANDS

CITY           SKY/WX    TMP DP  RH WIND       PRES   REMARKS
CATALINA ARPT  FOG       53  52  96 W7        30.00R VSB 1/4
SAN NICOLAS IS MOSUNNY   54  52  93 W15       29.99R

$$

MARINE AND OFFSHORE BUOY REPORTS

STATION/POSITION SKY/WX   TEMP    WIND        PRES    SWELL
                          AIR SEA DIR/SP/G            HT/PER/DIR
                          (F)     (DEG/KT/KT) (MB)    (FT/S/D)
S CLEMENTE BASIN           60 63  310/ 12/ 16 1015.1R   3/280/11
SAN NICOLAS IS.               59                N/A     3/300/11
SO. S. ROSA ISLA           55 58  320/ 16/ 19 1015.8R   5/11
W. S. BARBARA CH           53 55  330/ 16/ 17 1015.7R   5/300/15
S. MONICA BASIN            58 60  330/  8/  8 1015.3R   3/280/12
S PEDRO CHANNEL               61                N/A     2/270/11
CMP PENDLETON NS              61                N/A     2/220/13
OCEANSIDE OFFSHR              61                N/A     2/190/15
TORREY PINES OTR              62                N/A     2/250/11
LA JOLLA 1                 61 62   20/  5/  6 1015.0R
MISSION BAY BUOY              61                N/A     2/240/12
SAN DIEGO BAY                 65              1015.2R
POINT LOMA SOUTH              62                N/A     2/230/12

$$




USA.gov is the U.S. government's official web portal to all federal, state and local government web resources and services.